Вернуться в каталог

STARLINK-4431

АктивенСвязьSSO
NORAD 53486·PAYLOAD·🇺🇸 United States

Запущен Aug 12, 2022 с Vandenberg Space Force Base

Loading…

Ближайшие Пролёты (ближайшие 24 часа)

TLE

СвежийSource: CelesTrak SupGP

Эпоха: Sep 15, 2026, 01:38 UTC

1 53486C 22099X   26258.06854167 -.00039488  00000+0 -10960-2 0  2587
2 53486  97.5051  25.7981 0000605  84.5425 135.4716 15.36980486    14

Отслеживайте STARLINK-4431 в реальном времени с AllMySat

Download on the App Store